Back to catalog

STARLINK-4728

AliveCommunicationsVLEO
NORAD 53793·PAYLOAD·🇺🇸 United States

Launched Sep 11, 2022 from Cape Canaveral Space Force Station

Loading…

Next Passes (next 24 hours)

TLE

FreshSource: CelesTrak SupGP

Epoch: Sep 14, 2026, 14:13 UTC

1 53793C 22111W   26257.59284722  .00042177  00000+0  13565-2 0  2574
2 53793  53.1583 133.5220 0001670  86.1149 309.0456 15.31676261    19

Track STARLINK-4728 in real time with AllMySat

Download on the App Store